Regional Weather Roundup
Issued by NWS Charleston, WV

Home | Current Version | Previous Version | Graphics & Text | Print | Product List | Glossary On
Versions: 1 2 3 4 5 6 7 8 9 10 11 12 13 14 15 16 17 18 19 20 21 22 23 24 25 26 27 28 29 30 31 32 33 34 35 36 37 38 39 40 41 42 43 44 45 46 47 48 49 50
000
ASUS41 KRLX 190210
RWRRLX
West Virginia Regional Weather Roundup
National Weather Service Charleston WV
1000 PM EDT SAT APR 18 2015

Note: "fair" indicates few or no clouds below 12,000 feet with no
significant weather and/or obstructions to visibility.

WVZ003-190300-
Northern Panhandle of West Virginia

CITY           SKY/WX    TMP DP  RH WIND       PRES   REMARKS
WHEELING       CLOUDY    67  41  38 NE12      30.05R
$$

WVZ009-190300-
Northwest West Virginia

CITY           SKY/WX    TMP DP  RH WIND       PRES   REMARKS
PARKERSBURG    MOCLDY    67  44  43 N3        30.04R
$$

WVZ006-190300-
Western West Virginia

CITY           SKY/WX    TMP DP  RH WIND       PRES   REMARKS
HUNTINGTON     MOCLDY    70  43  37 NE6       29.97R
$$

WVZ015-190300-
West Central West Virginia

CITY           SKY/WX    TMP DP  RH WIND       PRES   REMARKS
CHARLESTON     PTCLDY    69  47  45 E3        29.98R
$$

WVZ022-031-190300-
North Central West Virginia

CITY           SKY/WX    TMP DP  RH WIND       PRES   REMARKS
CLARKSBURG     MOCLDY    66  40  38 E3        30.03R
MORGANTOWN     MOCLDY    66  38  35 N5        30.05R
$$

WVZ025-035-042-045-190300-
Southern West Virginia

CITY           SKY/WX    TMP DP  RH WIND       PRES   REMARKS
BECKLEY        MOCLDY    67  42  40 NE5       30.04R
LOGAN            N/A     72  45  37 N7        29.96S
BLUEFIELD      MOCLDY    70  50  49 S6        30.06R
LEWISBURG      MOCLDY    64  46  52 CALM      30.05R
$$

WVZ047-190300-
Northern Mountains of West Virginia

CITY           SKY/WX    TMP DP  RH WIND       PRES   REMARKS
ELKINS         PTCLDY    52  45  77 CALM      30.07R
$$

WVZ052-190300-
Eastern Panhandle of West Virginia

CITY           SKY/WX    TMP DP  RH WIND       PRES   REMARKS
MARTINSBURG    CLOUDY    64  48  56 CALM      30.01R
PETERSBURG     PTCLDY    54  46  73 NW5       30.05R
$$


USA.gov is the U.S. government's official web portal to all federal, state and local government web resources and services.